Location: Codford Saint Peter
(51.1597°N, 2.0531°W)
Time: 15:31:44
(UTC+00:00)

SPOT 3 Rocket - Pass Details

Date: 18 September 2020
Orbit: 780 x 794 km, 98.7° (Epoch: 27 October)

Event Time Altitude Azimuth Distance (km) Brightness Sun altitude
Exits shadow 20:03:37 24° 147° (SSE) 1,558 4.6 -17.3°
Maximum altitude 20:06:41 68° 70° (ENE) 841 3.5 -17.7°
Drops below altitude 10° 20:11:49 10° 349° (N) 2,347 6.5 -18.5°
Sets 20:14:09 0° 347° (NNW) 3,281 7.4 -18.8°
